Location: Newark
(51.2625°N, 13.3939°E)
Time: 18:06:59
(UTC+00:00)

Explorer 7 - Pass Details

Date: 17 November 2019
Orbit: 485 x 680 km, 50.3° (Epoch: 13 December)

Event Time Altitude Azimuth Distance (km) Brightness Sun altitude
Rises 00:35:44 0° 230° (SW) 2,904 - -51.6°
Reaches altitude 10° 00:38:12 10° 224° (SW) 1,967 - -51.4°
Maximum altitude 00:42:25 40° 155° (SSE) 867 - -50.9°
Drops below altitude 10° 00:46:24 10° 85° (E) 1,856 - -50.5°
Sets 00:48:40 0° 78° (ENE) 2,719 - -50.2°
